Showing default

COSMOS 2460 (GLONASS), 36402

Orbit data source: Space-Track

COSMOS 2460 (GLONASS), 36402 is a Commonwealth of Independent States-origin payload satellite in MEO that was launched on Mon, 01 Mar 2010 UTC via a PROTON-M/DM-2 launch vehicle from the Tyuratam Missile And Space Complex (TTMTR). Payload-class satellites include a variety of spacecraft equipped with specific instruments for various scientific and technological missions. These include communications satellites like Starlink; space stations such as the ISS; scientific satellites like the Hubble; Earth observation satellites from companies like Planet Labs, Umbra, and HawkEye 360; GPS; miniature CubeSats for education and research; and military/defense satellites.

Loading next visibility...
Identifier
36402, 2010-007C
Orbit
MEO
Country
Flag of CISCIS
Related business
Manufacturer
Resehetnev ISS
Mission
Operational Defense Navigation
Bus & Motor
URAGAN, Unknown motor
Mass
1,450 kg wet, ~1,200 kg dry
Launch date (UTC)
2010-03-01 (17 years ago)
Launch vehicle
PROTON-M/DM-2
Launch site
Tyuratam Missile And Space Complex (TTMTR)
Object type
Payload
Rocket body
Debris
Shape & HBR
Cyl + 1 Ant + 2 Pan, 3.9 m
Radar Cross Section
8.467 m², Large (>1 m²)

Expand to show TLE details & history
Last TLE update: 18 hours ago

TLE from 18 hours ago
0 COSMOS 2460 (GLONASS)
1 36402U 10007C   26256.43297892 -.00000050  00000-0  00000-0 0  9994
2 36402  65.3642 311.4769 0002352 211.4484 192.9270  2.13101548128613
Epoch: 2026-09-13T10:23Z
TLE epoch observation values (Epoch: 2026-09-13T10:23:29.378Z)
Latitude
39.45743°
Longitude
-174.6675°
Altitude
19,139.876 km
Speed
3.953 km/s
True Right ascension
22h 14m 31s
True Declination
39° 24' 37"
Sunlit
Object was in daylight at epoch
Visualization orbit readout
Latitude
Unknown
Longitude
Unknown
Altitude
Unknown
Speed
Unknown
Apparent Right ascension
Unknown
Apparent Declination
Unknown
Sunlit
N/A
Visualization observer readout
Local Sidereal Time
21:02:13
Azimuth
Unknown
Elevation
Unknown
Doppler factor
Unknown
Orbital elements
Apogee altitude
19,135.525 km
Perigee altitude
19,123.526 km
Semi-major axis
25,507.663 km
Eccentricity
0.00024
Inclination
65.3642°
RAAN
311.4769°
Arg. of periapsis
211.4484°
True anomaly
192.92097°
Mean anomaly
192.927°
Eccentric anomaly
192.92399°
Mean motion
0.53277 °/min
Orbital period
675.72 mins
BSTAR
0
Loading maneuver chart data...
Computing Atmospheric mass density...
Loading historical data...
Loading historical data...
Loading historical data...
Loading historical data...
Loading historical data...
Loading historical data...
Loading historical data...

Documentation

Showing up to 5 results
|